Reno - Stead, NV

9:09 PM PDT on June 28, 2017 (GMT -0700)
Reno - Stead

Weather History for KRTS - May, 2013

Change the Weather History Date:

Tuesday, May 21, 2013

  Actual Average (KRNO) Record (KRNO)
Temperature  
Mean Temperature 60 °F -  
Max Temperature 69 °F 75 °F 94 °F (1967)
Min Temperature 50 °F 40 °F 28 °F (1893)
Degree Days  
Heating Degree Days 6    
Growing Degree Days 10 (Base 50)    
Moisture  
Dew Point 22 °F    
Average Humidity 24    
Maximum Humidity 43    
Minimum Humidity 11    
Precipitation  
Precipitation 0.00 in - - ()
Sea Level Pressure  
Sea Level Pressure 29.94 in    
Wind  
Wind Speed 13 mph (WSW)    
Max Wind Speed 33 mph    
Max Gust Speed 46 mph    
Visibility 10 miles    
Events      
Averages and records for this station are not official NWS values.
T = Trace of Precipitation, MM = Missing Value Source: NWS Daily Summary

Daily Weather History Graph

Daily Weather History Graph

Search for Another Location

Airport or City:

Trip Planner

Search our weather history database for the weather conditions in past years. The results will help you decide how hot, cold, wet, or windy it might be!

Date:

Astronomy

May. 21, 2013 Rise Set
Actual Time 5:39 AM PDT 8:12 PM PDT
Civil Twilight 5:08 AM PDT 8:44 PM PDT
Nautical Twilight 4:30 AM PDT 9:22 PM PDT
Astronomical Twilight 3:47 AM PDT 10:06 PM PDT
Moon 4:32 PM PDT (5/21) 3:09 AM PDT (5/21)
Length of Visible Light 15h 35m
Length of Day
14h 33m
Waxing Gibbous, 85% of the Moon is Illuminated
May 21
Waxing Gibbous
May 24
Full
May 31
Last Quarter
Jun 8
New
Jun 16
First Quarter

Hourly Weather History & Observations

Time (PDT) Temp. Dew Point Humidity Pressure Visibility Wind Dir Wind Speed Gust Speed Precip Events Conditions
12:15 AM 55.4 °F 28.4 °F 36% 30.07 in 10.0 mi SW 4.6 mph - N/A   Clear
12:35 AM 55.4 °F 26.6 °F 33% 30.06 in 10.0 mi West 6.9 mph - N/A   Clear
12:55 AM 55.4 °F 28.4 °F 36% 30.06 in 10.0 mi West 9.2 mph - N/A   Clear
1:15 AM 55.4 °F 26.6 °F 33% 30.05 in 10.0 mi SW 5.8 mph - N/A   Clear
1:35 AM 57.2 °F 26.6 °F 31% 30.04 in 10.0 mi WNW 6.9 mph - N/A   Clear
1:55 AM 55.4 °F 26.6 °F 33% 30.04 in 10.0 mi North 5.8 mph - N/A   Clear
2:15 AM 57.2 °F 26.6 °F 31% 30.03 in 10.0 mi West 15.0 mph 18.4 mph N/A   Clear
2:35 AM 57.2 °F 26.6 °F 31% 30.02 in 10.0 mi WNW 12.7 mph - N/A   Clear
2:55 AM 53.6 °F 26.6 °F 35% 30.02 in 10.0 mi NW 10.4 mph - N/A   Clear
3:15 AM 53.6 °F 26.6 °F 35% 30.02 in 10.0 mi NW 5.8 mph - N/A   Clear
3:35 AM 59.0 °F 26.6 °F 29% 30.00 in 10.0 mi WSW 13.8 mph - N/A   Clear
3:55 AM 59.0 °F 26.6 °F 29% 30.00 in 10.0 mi West 12.7 mph 21.9 mph N/A   Clear
4:15 AM 57.2 °F 26.6 °F 31% 29.99 in 10.0 mi WNW 11.5 mph 16.1 mph N/A   Clear
4:35 AM 57.2 °F 28.4 °F 33% 29.98 in 10.0 mi NW 9.2 mph - N/A   Clear
4:55 AM 55.4 °F 28.4 °F 36% 29.98 in 10.0 mi NNW 9.2 mph - N/A   Clear
5:15 AM 55.4 °F 28.4 °F 36% 29.99 in 10.0 mi WNW 5.8 mph - N/A   Clear
5:35 AM 55.4 °F 28.4 °F 36% 29.98 in 10.0 mi NNW 6.9 mph - N/A   Clear
5:55 AM 57.2 °F 26.6 °F 31% 29.98 in 10.0 mi Calm Calm - N/A   Clear
6:15 AM 57.2 °F 26.6 °F 31% 29.99 in 10.0 mi North 4.6 mph - N/A   Clear
6:35 AM 55.4 °F 26.6 °F 33% 29.98 in 10.0 mi NNE 5.8 mph - N/A   Clear
6:55 AM 55.4 °F 26.6 °F 33% 29.97 in 10.0 mi SSW 3.5 mph - N/A   Clear
7:15 AM 59.0 °F 19.4 °F 22% 29.97 in 10.0 mi West 3.5 mph - N/A   Clear
7:35 AM 57.2 °F 24.8 °F 29% 29.98 in 10.0 mi WNW 12.7 mph - N/A   Clear
7:55 AM 59.0 °F 24.8 °F 27% 29.97 in 10.0 mi WNW 10.4 mph - N/A   Clear
8:15 AM 60.8 °F 21.2 °F 22% 29.95 in 10.0 mi Calm Calm - N/A   Clear
8:35 AM 62.6 °F 17.6 °F 18% 29.96 in 10.0 mi SE 3.5 mph - N/A   Clear
8:55 AM 64.4 °F 15.8 °F 15% 29.95 in 10.0 mi SW 19.6 mph 24.2 mph N/A   Clear
9:15 AM 66.2 °F 17.6 °F 15% 29.94 in 10.0 mi SW 16.1 mph 29.9 mph N/A   Clear
9:35 AM 66.2 °F 19.4 °F 17% 29.93 in 10.0 mi SW 13.8 mph 29.9 mph N/A   Clear
9:55 AM 68.0 °F 19.4 °F 16% 29.92 in 10.0 mi WSW 12.7 mph 24.2 mph N/A   Clear
10:15 AM 68.0 °F 23.0 °F 18% 29.92 in 10.0 mi WSW 18.4 mph 26.5 mph N/A   Clear
10:35 AM 68.0 °F 24.8 °F 20% 29.91 in 10.0 mi WSW 15.0 mph 32.2 mph N/A   Clear
10:55 AM 68.0 °F 24.8 °F 20% 29.91 in 10.0 mi WSW 16.1 mph 35.7 mph N/A   Clear
11:15 AM 68.0 °F 24.8 °F 20% 29.91 in 10.0 mi WSW 13.8 mph 26.5 mph N/A   Clear
11:35 AM 68.0 °F 24.8 °F 20% 29.91 in 10.0 mi West 20.7 mph 32.2 mph N/A   Clear
11:55 AM 68.0 °F 24.8 °F 20% 29.90 in 10.0 mi SW 29.9 mph 43.7 mph N/A   Clear
12:15 PM 69.8 °F 24.8 °F 18% 29.90 in 10.0 mi West 19.6 mph 32.2 mph N/A   Clear
12:35 PM 69.8 °F 23.0 °F 17% 29.91 in 10.0 mi WSW 28.8 mph 36.8 mph N/A   Clear
12:55 PM 68.0 °F 21.2 °F 17% 29.90 in 10.0 mi WSW 25.3 mph 41.4 mph N/A   Clear
1:15 PM 68.0 °F 23.0 °F 18% 29.91 in 10.0 mi WSW 25.3 mph 40.3 mph N/A   Clear
1:35 PM 69.8 °F 26.6 °F 20% 29.91 in 10.0 mi WSW 28.8 mph 41.4 mph N/A   Clear
1:55 PM 68.0 °F 23.0 °F 18% 29.91 in 10.0 mi WSW 25.3 mph 38.0 mph N/A   Clear
2:15 PM 69.8 °F 23.0 °F 17% 29.91 in 10.0 mi WSW 24.2 mph 40.3 mph N/A   Clear
2:35 PM 68.0 °F 19.4 °F 16% 29.90 in 10.0 mi WSW 26.5 mph 39.1 mph N/A   Clear
2:55 PM 68.0 °F 15.8 °F 13% 29.90 in 10.0 mi West 27.6 mph 38.0 mph N/A   Clear
3:15 PM 69.8 °F 15.8 °F 13% 29.89 in 10.0 mi WSW 26.5 mph 38.0 mph N/A   Clear
3:35 PM 68.0 °F 15.8 °F 13% 29.89 in 10.0 mi WSW 24.2 mph 46.0 mph N/A   Clear
3:55 PM 68.0 °F 14.0 °F 12% 29.88 in 10.0 mi WSW 24.2 mph 36.8 mph N/A   Clear
4:15 PM 68.0 °F 12.2 °F 12% 29.88 in 10.0 mi WSW 29.9 mph 41.4 mph N/A   Clear
4:35 PM 68.0 °F 10.4 °F 11% 29.88 in 10.0 mi WSW 23.0 mph 38.0 mph N/A   Clear
4:55 PM 66.2 °F 10.4 °F 11% 29.88 in 10.0 mi SW 33.4 mph 43.7 mph N/A   Clear
5:15 PM 66.2 °F 12.2 °F 12% 29.88 in 10.0 mi WSW 24.2 mph 40.3 mph N/A   Clear
5:35 PM 66.2 °F 12.2 °F 12% 29.87 in 10.0 mi WSW 27.6 mph 36.8 mph N/A   Clear
5:55 PM 64.4 °F 10.4 °F 12% 29.87 in 10.0 mi SW 29.9 mph 40.3 mph N/A   Clear
6:15 PM 64.4 °F 15.8 °F 15% 29.87 in 10.0 mi SW 24.2 mph 33.4 mph N/A   Clear
6:35 PM 62.6 °F 15.8 °F 16% 29.87 in 10.0 mi SW 25.3 mph 34.5 mph N/A   Clear
6:55 PM 60.8 °F 14.0 °F 16% 29.87 in 10.0 mi SW 26.5 mph 31.1 mph N/A   Clear
7:15 PM 59.0 °F 10.4 °F 15% 29.88 in 10.0 mi WSW 21.9 mph 29.9 mph N/A   Clear
7:35 PM 59.0 °F 14.0 °F 17% 29.89 in 10.0 mi WSW 17.3 mph 25.3 mph N/A   Clear
7:55 PM 57.2 °F 14.0 °F 18% 29.89 in 10.0 mi West 19.6 mph 24.2 mph N/A   Clear
8:15 PM 55.4 °F 17.6 °F 23% 29.89 in 10.0 mi West 13.8 mph 25.3 mph N/A   Clear
8:35 PM 53.6 °F 17.6 °F 24% 29.89 in 10.0 mi West 13.8 mph - N/A   Clear
8:55 PM 53.6 °F 17.6 °F 24% 29.90 in 10.0 mi West 17.3 mph 21.9 mph N/A   Clear
9:15 PM 51.8 °F 17.6 °F 26% 29.90 in 10.0 mi WSW 13.8 mph - N/A   Clear
9:35 PM 51.8 °F 17.6 °F 26% 29.90 in 10.0 mi WSW 19.6 mph 24.2 mph N/A   Clear
9:55 PM 51.8 °F 19.4 °F 28% 29.90 in 10.0 mi WSW 20.7 mph 28.8 mph N/A   Clear
10:15 PM 50.0 °F 23.0 °F 35% 29.90 in 10.0 mi WSW 19.6 mph 28.8 mph N/A   Clear
10:35 PM 50.0 °F 23.0 °F 35% 29.90 in 10.0 mi WSW 20.7 mph 27.6 mph N/A   Clear
10:55 PM 50.0 °F 24.8 °F 37% 29.90 in 10.0 mi WSW 21.9 mph 27.6 mph N/A   Clear
11:15 PM 50.0 °F 26.6 °F 40% 29.89 in 10.0 mi WSW 23.0 mph 31.1 mph N/A   Clear
11:35 PM 50.0 °F 26.6 °F 40% 29.88 in 10.0 mi WSW 20.7 mph 34.5 mph N/A   Clear
11:55 PM 50.0 °F 28.4 °F 43% 29.88 in 10.0 mi WSW 20.7 mph 27.6 mph N/A   Clear